Newport News, VA

10:45 AM EDT on March 26, 2017 (GMT -0400)
Newport News-Williamsburg International

Weather History for KPHF - August, 2013

Change the Weather History Date:

Thursday, August 29, 2013

  Actual Average Record
Temperature  
Mean Temperature 80 °F -  
Max Temperature 87 °F 88 °F 99 °F (1948)
Min Temperature 73 °F 68 °F 58 °F (1976)
Cooling Degree Days 14    
Growing Degree Days 30 (Base 50)    
Moisture  
Dew Point 69 °F    
Average Humidity 74    
Maximum Humidity 89    
Minimum Humidity 57    
Precipitation  
Precipitation 0.14 in - - ()
Sea Level Pressure  
Sea Level Pressure 29.89 in    
Wind  
Wind Speed 7 mph (NE)    
Max Wind Speed 16 mph    
Max Gust Speed 21 mph    
Visibility 8 miles    
Events Rain    
Averages and records for this station are not official NWS values.
T = Trace of Precipitation, MM = Missing Value Source: NWS Daily Summary

Daily Weather History Graph

Daily Weather History Graph

Search for Another Location

Airport or City:

Trip Planner

Search our weather history database for the weather conditions in past years. The results will help you decide how hot, cold, wet, or windy it might be!

Date:

Astronomy

Aug. 29, 2013 Rise Set
Actual Time 6:34 AM EDT 7:38 PM EDT
Civil Twilight 6:07 AM EDT 8:05 PM EDT
Nautical Twilight 5:35 AM EDT 8:37 PM EDT
Astronomical Twilight 5:02 AM EDT 9:09 PM EDT
Moon 12:28 AM EDT (8/29) 3:01 PM EDT (8/29)
Length of Visible Light 13h 57m
Length of Day
13h 04m
Last Quarter, 38% of the Moon is Illuminated
Aug 29
Last Quarter
Sep 5
New
Sep 12
First Quarter
Sep 19
Full
Sep 26
Last Quarter

Hourly Weather History & Observations

Time (EDT) Temp. Heat Index Dew Point Humidity Pressure Visibility Wind Dir Wind Speed Gust Speed Precip Events Conditions
12:01 AM 78.8 °F - 71.6 °F 78% 29.85 in 1.8 mi WSW 9.2 mph - 0.09 in Rain Heavy Rain
12:12 AM 78.8 °F - 71.6 °F 78% 29.84 in 3.0 mi WSW 9.2 mph - 0.11 in Rain Light Rain
12:21 AM 77.0 °F - 69.8 °F 78% 29.84 in 5.0 mi WSW 12.7 mph - 0.12 in Rain Light Rain
12:54 AM 75.9 °F - 69.1 °F 79% 29.82 in 6.0 mi Calm Calm - 0.13 in Rain Light Rain
1:09 AM 75.2 °F - 69.8 °F 83% 29.82 in 6.0 mi Calm Calm - 0.01 in Rain Light Rain
1:27 AM 77.0 °F - 71.6 °F 83% 29.81 in 6.0 mi SW 4.6 mph - 0.01 in   Haze
1:37 AM 77.0 °F - 71.6 °F 83% 29.81 in 7.0 mi Calm Calm - 0.01 in   Mostly Cloudy
1:54 AM 77.0 °F - 70.0 °F 79% 29.80 in 7.0 mi Variable 3.5 mph - 0.01 in   Mostly Cloudy
1:57 AM 77.0 °F - 69.8 °F 78% 29.80 in 7.0 mi SE 5.8 mph - N/A   Mostly Cloudy
2:27 AM 75.2 °F - 69.8 °F 83% 29.80 in 8.0 mi Calm Calm - N/A   Scattered Clouds
2:54 AM 75.9 °F - 70.0 °F 82% 29.80 in 6.0 mi Calm Calm - N/A   Haze
3:54 AM 75.9 °F - 70.0 °F 82% 29.80 in 4.0 mi NNE 4.6 mph - N/A   Haze
4:28 AM 75.2 °F - 69.8 °F 83% 29.81 in 5.0 mi North 4.6 mph - N/A   Haze
4:37 AM 75.2 °F - 69.8 °F 83% 29.81 in 5.0 mi North 4.6 mph - N/A   Haze
4:52 AM 75.2 °F - 69.8 °F 83% 29.82 in 6.0 mi North 5.8 mph - N/A   Haze
4:54 AM 75.9 °F - 70.0 °F 82% 29.82 in 6.0 mi North 4.6 mph - N/A   Haze
5:07 AM 75.2 °F - 69.8 °F 83% 29.82 in 5.0 mi North 5.8 mph - N/A   Haze
5:51 AM 75.2 °F - 69.8 °F 83% 29.83 in 6.0 mi North 4.6 mph - N/A   Haze
5:54 AM 75.9 °F - 70.0 °F 82% 29.83 in 6.0 mi North 5.8 mph - N/A   Haze
6:03 AM 75.2 °F - 71.6 °F 89% 29.83 in 6.0 mi North 4.6 mph - N/A   Haze
6:11 AM 77.0 °F - 71.6 °F 83% 29.83 in 6.0 mi North 4.6 mph - N/A   Haze
6:34 AM 75.2 °F - 71.6 °F 89% 29.84 in 6.0 mi North 4.6 mph - N/A   Haze
6:54 AM 77.0 °F - 71.1 °F 82% 29.85 in 6.0 mi North 5.8 mph - N/A   Haze
7:54 AM 77.0 °F - 71.1 °F 82% 29.87 in 4.0 mi NNE 6.9 mph - N/A   Haze
8:01 AM 77.0 °F - 71.6 °F 83% 29.88 in 5.0 mi NNE 8.1 mph - N/A   Haze
8:37 AM 78.8 °F - 71.6 °F 78% 29.89 in 9.0 mi NE 6.9 mph - N/A   Overcast
8:54 AM 79.0 °F - 71.1 °F 77% 29.89 in 10.0 mi NE 8.1 mph - N/A   Mostly Cloudy
9:11 AM 78.8 °F - 71.6 °F 78% 29.90 in 10.0 mi NE 9.2 mph - N/A   Overcast
9:23 AM 78.8 °F - 71.6 °F 78% 29.90 in 9.0 mi NE 9.2 mph - N/A   Overcast
9:54 AM 81.0 °F 84.9 °F 71.1 °F 72% 29.90 in 10.0 mi ENE 8.1 mph - N/A   Overcast
10:15 AM 80.6 °F 83.9 °F 69.8 °F 70% 29.90 in 10.0 mi NE 9.2 mph - N/A   Mostly Cloudy
10:54 AM 84.0 °F 89.0 °F 71.1 °F 65% 29.90 in 10.0 mi NNE 5.8 mph - N/A   Mostly Cloudy
11:05 AM 82.4 °F 86.3 °F 69.8 °F 66% 29.90 in 10.0 mi Variable 6.9 mph - N/A   Mostly Cloudy
11:54 AM 84.9 °F 89.4 °F 70.0 °F 61% 29.91 in 10.0 mi NE 8.1 mph - N/A   Mostly Cloudy
12:34 PM 84.2 °F 87.3 °F 68.0 °F 58% 29.92 in 10.0 mi NNE 13.8 mph - N/A   Scattered Clouds
12:54 PM 84.0 °F 87.0 °F 68.0 °F 58% 29.93 in 10.0 mi NNE 16.1 mph 20.7 mph N/A   Scattered Clouds
1:20 PM 86.0 °F 90.4 °F 69.8 °F 58% 29.93 in 10.0 mi NNE 10.4 mph - N/A   Mostly Cloudy
2:08 PM 82.4 °F 84.6 °F 66.2 °F 58% 29.95 in 10.0 mi NE 13.8 mph 20.7 mph N/A   Mostly Cloudy
2:54 PM 84.9 °F 88.2 °F 68.0 °F 57% 29.95 in 10.0 mi East 13.8 mph 20.7 mph N/A   Partly Cloudy
3:54 PM 84.0 °F 87.0 °F 68.0 °F 58% 29.95 in 10.0 mi East 12.7 mph 20.7 mph N/A   Clear
4:33 PM 82.4 °F 84.6 °F 66.2 °F 58% 29.96 in 10.0 mi East 12.7 mph - N/A   Mostly Cloudy
4:54 PM 82.0 °F 84.9 °F 68.0 °F 62% 29.96 in 10.0 mi East 13.8 mph - N/A   Overcast
5:15 PM 80.6 °F 82.7 °F 66.2 °F 61% 29.96 in 10.0 mi East 11.5 mph 18.4 mph N/A   Overcast
5:54 PM 80.1 °F 82.3 °F 66.9 °F 64% 29.97 in 10.0 mi East 12.7 mph - N/A   Mostly Cloudy
6:54 PM 79.0 °F - 64.9 °F 62% 29.98 in 10.0 mi ENE 11.5 mph - N/A   Scattered Clouds
7:06 PM 78.8 °F - 64.4 °F 61% 29.98 in 10.0 mi East 13.8 mph - N/A   Mostly Cloudy
7:43 PM 75.2 °F - 62.6 °F 65% 29.99 in 10.0 mi ENE 10.4 mph - N/A   Scattered Clouds
7:54 PM 75.9 °F - 64.0 °F 67% 29.99 in 10.0 mi ENE 9.2 mph - N/A   Clear
8:54 PM 75.0 °F - 64.0 °F 69% 30.01 in 10.0 mi ENE 8.1 mph - N/A   Clear
9:54 PM 73.9 °F - 63.0 °F 68% 30.01 in 10.0 mi ENE 6.9 mph - N/A   Clear
10:54 PM 73.0 °F - 64.0 °F 73% 30.02 in 10.0 mi NE 5.8 mph - N/A   Partly Cloudy
11:54 PM 73.0 °F - 64.9 °F 76% 30.02 in 10.0 mi ENE 5.8 mph - N/A   Partly Cloudy